Weather History for O'Neill, NE

Change the Weather History Date:

Thursday, January 23, 2014

  Actual Average Record
Temperature  
Mean Temperature 8 °F -  
Max Temperature 22 °F 35 °F 66 °F (1989)
Min Temperature -5 °F 11 °F -20 °F (1949)
Degree Days  
Heating Degree Days 56    
Moisture  
Dew Point -11 °F    
Average Humidity 48    
Maximum Humidity 74    
Minimum Humidity 16    
Precipitation  
Precipitation 0.00 in - - ()
Sea Level Pressure  
Sea Level Pressure 30.58 in    
Wind  
Wind Speed 9 mph (West)    
Max Wind Speed 17 mph    
Max Gust Speed 24 mph    
Visibility 10 miles    
Events      
Averages and records for this station are not official NWS values.
T = Trace of Precipitation, MM = Missing Value Source: NWS Daily Summary

Daily Weather History Graph

Daily Weather History Graph

Search for Another Location

Airport:

Trip Planner

Search our weather history database for the weather conditions in past years. The results will help you decide how hot, cold, wet, or windy it might be!

Date:

Astronomy

Jan. 23, 2014 Rise Set
Actual Time 7:56 AM CST 5:37 PM CST
Civil Twilight 7:26 AM CST 6:07 PM CST
Nautical Twilight 6:51 AM CST 6:41 PM CST
Astronomical Twilight 6:18 AM CST 7:15 PM CST
Moon 12:19 AM CST (1/23) 11:23 AM CST (1/23)
Length of Visible Light 10h 41m
Length of Day
9h 40m
Waning Gibbous, 55% of the Moon is Illuminated
Jan 23
Waning Gibbous
Jan 23
Last Quarter
Jan 30
New
Feb 6
First Quarter
Feb 14
Full

Hourly Weather History & Observations

Time (CST) Temp. Windchill Dew Point Humidity Pressure Visibility Wind Dir Wind Speed Gust Speed Precip Events Conditions
12:15 AM -2.9 °F -18.8 °F -10.3 °F 71% 30.60 in 10.0 mi NNW 9.2 mph - N/A   Clear
12:35 AM -3.1 °F -17.9 °F -10.3 °F 71% 30.61 in 10.0 mi NW 8.1 mph - N/A   Clear
12:55 AM -3.6 °F -18.6 °F -10.3 °F 73% 30.61 in 10.0 mi NW 8.1 mph - N/A   Clear
1:15 AM -4.0 °F -17.8 °F -10.5 °F 74% 30.62 in 10.0 mi NW 6.9 mph - N/A   Clear
1:35 AM -4.2 °F -18.0 °F -10.5 °F 74% 30.62 in 10.0 mi NW 6.9 mph - N/A   Clear
1:55 AM -4.9 °F -21.3 °F -11.2 °F 74% 30.61 in 10.0 mi NW 9.2 mph - N/A   Clear
2:15 AM -4.9 °F -20.1 °F -11.2 °F 74% 30.61 in 10.0 mi NW 8.1 mph - N/A   Clear
2:35 AM -4.5 °F -22.8 °F -11.2 °F 73% 30.62 in 10.0 mi NNW 11.5 mph - N/A   Clear
2:55 AM -4.4 °F -20.6 °F -11.4 °F 72% 30.62 in 10.0 mi NW 9.2 mph - N/A   Clear
3:15 AM -4.5 °F -20.8 °F -11.7 °F 71% 30.63 in 10.0 mi NW 9.2 mph - N/A   Clear
3:35 AM -4.7 °F -21.1 °F -11.6 °F 72% 30.64 in 10.0 mi NW 9.2 mph - N/A   Clear
3:55 AM -4.9 °F -21.3 °F -11.7 °F 72% 30.64 in 10.0 mi NW 9.2 mph - N/A   Clear
4:15 AM -4.5 °F -22.8 °F -12.1 °F 70% 30.64 in 10.0 mi NW 11.5 mph - N/A   Clear
4:35 AM -4.9 °F -21.3 °F -12.1 °F 71% 30.65 in 10.0 mi NW 9.2 mph - N/A   Clear
4:55 AM -4.9 °F -22.3 °F -12.3 °F 71% 30.66 in 10.0 mi NW 10.4 mph - N/A   Clear
5:15 AM -5.1 °F -21.5 °F -12.3 °F 71% 30.67 in 10.0 mi WNW 9.2 mph - N/A   Clear
5:35 AM -5.1 °F -22.5 °F -12.3 °F 71% 30.68 in 10.0 mi NW 10.4 mph - N/A   Clear
5:55 AM -4.9 °F -21.3 °F -12.1 °F 71% 30.69 in 10.0 mi WNW 9.2 mph - N/A   Clear
6:15 AM -5.3 °F -21.7 °F -12.3 °F 72% 30.69 in 10.0 mi NW 9.2 mph - N/A   Clear
6:35 AM -5.1 °F -20.4 °F -12.3 °F 71% 30.70 in 10.0 mi NW 8.1 mph - N/A   Clear
6:55 AM -5.3 °F -20.6 °F -12.3 °F 72% 30.71 in 10.0 mi NW 8.1 mph - N/A   Clear
7:15 AM -5.3 °F -20.6 °F -12.3 °F 72% 30.71 in 10.0 mi NW 8.1 mph - N/A   Clear
7:35 AM -5.3 °F -21.7 °F -12.3 °F 72% 30.71 in 10.0 mi WNW 9.2 mph - N/A   Clear
7:55 AM -5.3 °F -20.6 °F -12.6 °F 70% 30.71 in 10.0 mi NW 8.1 mph - N/A   Clear
8:15 AM -5.1 °F -19.1 °F -12.5 °F 70% 30.72 in 10.0 mi NW 6.9 mph - N/A   Clear
8:35 AM -4.0 °F -19.0 °F -11.6 °F 70% 30.73 in 10.0 mi WNW 8.1 mph - N/A   Clear
8:55 AM -2.6 °F -17.3 °F -9.9 °F 71% 30.73 in 10.0 mi NW 8.1 mph - N/A   Clear
9:15 AM -0.8 °F -17.2 °F -8.5 °F 70% 30.73 in 10.0 mi NW 10.4 mph - N/A   Clear
9:35 AM 0.9 °F -14.2 °F -8.7 °F 64% 30.73 in 10.0 mi NW 9.2 mph - N/A   Clear
9:55 AM 2.3 °F -11.4 °F -9.0 °F 59% 30.73 in 10.0 mi WNW 8.1 mph - N/A   Clear
10:15 AM 3.7 °F -9.6 °F -7.4 °F 60% 30.73 in 10.0 mi NW 8.1 mph - N/A   Clear
10:35 AM 5.2 °F -9.8 °F -7.4 °F 56% 30.73 in 10.0 mi WNW 10.4 mph - N/A   Clear
10:55 AM 6.8 °F -6.9 °F -7.4 °F 52% 30.73 in 10.0 mi NW 9.2 mph - N/A   Clear
11:15 AM 7.9 °F -3.5 °F -7.6 °F 49% 30.73 in 10.0 mi NW 6.9 mph - N/A   Clear
11:35 AM 9.9 °F -1.1 °F -8.3 °F 44% 30.71 in 10.0 mi WNW 6.9 mph - N/A   Clear
11:55 AM 10.9 °F 1.4 °F -8.9 °F 41% 30.71 in 10.0 mi NW 5.8 mph - N/A   Clear
12:15 PM 12.9 °F 1.6 °F -10.1 °F 35% 30.69 in 10.0 mi WNW 8.1 mph - N/A   Clear
12:35 PM 13.8 °F 3.7 °F -11.4 °F 32% 30.68 in 10.0 mi West 6.9 mph - N/A   Clear
12:55 PM 15.3 °F 6.6 °F -11.6 °F 30% 30.67 in 10.0 mi West 5.8 mph - N/A   Clear
1:15 PM 15.6 °F 5.9 °F -10.8 °F 30% 30.66 in 10.0 mi West 6.9 mph - N/A   Clear
1:35 PM 17.2 °F 6.8 °F -10.8 °F 28% 30.64 in 10.0 mi West 8.1 mph - N/A   Clear
1:55 PM 17.8 °F 8.5 °F -12.3 °F 26% 30.62 in 10.0 mi SW 6.9 mph - N/A   Clear
2:15 PM 19.2 °F 10.2 °F -12.5 °F 24% 30.61 in 10.0 mi SW 6.9 mph - N/A   Clear
2:35 PM 19.9 °F 10.1 °F -14.8 °F 21% 30.60 in 10.0 mi West 8.1 mph - N/A   Clear
2:55 PM 21.0 °F 9.9 °F -15.5 °F 19% 30.58 in 10.0 mi SW 10.4 mph - N/A   Clear
3:15 PM 21.6 °F 10.6 °F -15.3 °F 19% 30.57 in 10.0 mi SW 10.4 mph - N/A   Clear
3:35 PM 21.9 °F 10.4 °F -16.8 °F 17% 30.57 in 10.0 mi SW 11.5 mph - N/A   Clear
3:55 PM 22.5 °F 11.7 °F -18.4 °F 16% 30.56 in 10.0 mi WSW 10.4 mph - N/A   Clear
4:15 PM 22.1 °F 10.6 °F -18.6 °F 16% 30.55 in 10.0 mi SW 11.5 mph 18.4 mph N/A   Clear
4:35 PM 21.9 °F 9.8 °F -18.4 °F 16% 30.53 in 10.0 mi SW 12.7 mph - N/A   Clear
4:55 PM 21.2 °F 9.5 °F -17.1 °F 18% 30.52 in 10.0 mi SW 11.5 mph 18.4 mph N/A   Clear
5:15 PM 20.1 °F 9.5 °F -16.6 °F 19% 30.52 in 10.0 mi SW 9.2 mph - N/A   Clear
5:35 PM 19.2 °F 7.7 °F -16.8 °F 20% 30.50 in 10.0 mi SSW 10.4 mph - N/A   Clear
5:55 PM 17.2 °F 6.0 °F -15.9 °F 22% 30.49 in 10.0 mi SSW 9.2 mph - N/A   Clear
6:15 PM 15.8 °F 4.2 °F -15.3 °F 24% 30.48 in 10.0 mi SSW 9.2 mph - N/A   Clear
6:35 PM 14.5 °F 1.9 °F -15.0 °F 26% 30.47 in 10.0 mi South 10.4 mph - N/A   Clear
6:55 PM 13.3 °F 0.3 °F -14.8 °F 28% 30.45 in 10.0 mi South 10.4 mph - N/A   Clear
7:15 PM 13.5 °F -0.2 °F -14.3 °F 28% 30.43 in 10.0 mi SSW 11.5 mph - N/A   Clear
7:35 PM 14.7 °F 1.4 °F -13.7 °F 27% 30.42 in 10.0 mi SSW 11.5 mph - N/A   Clear
7:55 PM 15.3 °F 2.8 °F -13.0 °F 28% 30.40 in 10.0 mi SSW 10.4 mph - N/A   Clear
8:35 PM 15.1 °F 1.1 °F -12.5 °F 29% 30.36 in 10.0 mi SSW 12.7 mph - N/A   Clear
8:55 PM 15.1 °F 1.8 °F -12.1 °F 29% 30.35 in 10.0 mi SSW 11.5 mph - N/A   Clear
9:15 PM 15.1 °F 1.1 °F -11.9 °F 29% 30.33 in 10.0 mi SSW 12.7 mph - N/A   Clear
9:55 PM 16.7 °F 1.5 °F -9.8 °F 30% 30.29 in 10.0 mi SSW 16.1 mph 21.9 mph N/A   Clear
10:15 PM 17.1 °F 2.5 °F -6.7 °F 35% 30.28 in 10.0 mi SW 15.0 mph - N/A   Clear
10:35 PM 17.2 °F 2.2 °F -4.7 °F 38% 30.26 in 10.0 mi SW 16.1 mph 24.2 mph N/A   Clear
10:55 PM 17.6 °F 2.2 °F -2.6 °F 41% 30.24 in 10.0 mi SW 17.3 mph 23.0 mph N/A   Clear
11:15 PM 17.6 °F 2.7 °F -0.6 °F 45% 30.24 in 10.0 mi SW 16.1 mph 21.9 mph N/A   Clear
11:35 PM 18.1 °F 2.9 °F 1.2 °F 48% 30.22 in 10.0 mi SW 17.3 mph 23.0 mph N/A   Clear
11:55 PM 18.1 °F 3.4 °F 2.7 °F 51% 30.21 in 10.0 mi SW 16.1 mph 24.2 mph N/A   Clear